Location: Dampvalley
(47.9094°N, 6.1967°E)
Time: 18:36:18
(UTC+00:00)

Geosat - Pass Details

Date: 05 March 2021
Orbit: 763 x 765 km, 108.0° (Epoch: 14 April)

Event Time Altitude Azimuth Distance (km) Brightness Sun altitude
Rises 04:36:21 0° 25° (NNE) 3,243 7.7 -16.2°
Reaches altitude 10° 04:38:42 10° 20° (NNE) 2,313 6.9 -15.8°
Maximum altitude 04:43:32 49° 306° (NW) 984 4.3 -15.0°
Enters shadow 04:46:54 19° 239° (WSW) 1,761 5.3 -14.4°
